| time (UTC) | temp F | wind direction | speed MPH | gust MPH | rain 1hr in | rain 24hr in | rain mn in | humidity % | barometer mb |
| 20260905051549 | 81 | 4 | 0.0 | 0.0 | 0.00 | 0.00 | 0.00 | 81 | 1012.4 |
| 20260905050039 | 81 | 4 | 0.0 | 0.0 | 0.00 | 0.00 | 0.00 | 80 | 1012.4 |
| 20260905044550 | 81 | 39 | 0.0 | 0.0 | 0.00 | 0.00 | 0.00 | 80 | 1012.5 |
| 20260905043034 | 81 | 35 | 0.0 | 0.0 | 0.00 | 0.00 | 0.00 | 80 | 1012.6 |
| 20260905041534 | 82 | 348 | 0.0 | 0.0 | 0.00 | 0.00 | 0.00 | 80 | 1012.6 |
| 20260905040036 | 82 | 347 | 0.0 | 0.0 | 0.00 | 0.00 | 0.00 | 79 | 1012.7 |
| 20260905034540 | 82 | 347 | 0.0 | 0.0 | 0.00 | 0.00 | 0.00 | 78 | 1012.7 |
| 20260905033051 | 82 | 54 | 0.0 | 0.0 | 0.00 | 0.00 | 0.00 | 78 | 1012.7 |
| 20260905031532 | 83 | 277 | 0.0 | 0.0 | 0.00 | 0.00 | 0.00 | 77 | 1012.7 |
| 20260905030031 | 83 | 263 | 0.0 | 0.0 | 0.00 | 0.00 | 0.00 | 77 | 1012.8 |
| 20260905024532 | 83 | 243 | 0.0 | 0.0 | 0.00 | 0.00 | 0.00 | 77 | 1012.8 |
| 20260905023100 | 83 | 243 | 0.0 | 0.0 | 0.00 | 0.00 | 0.00 | 77 | 1012.5 |
| 20260905021530 | 83 | 243 | 0.0 | 0.0 | 0.00 | 0.00 | 0.00 | 77 | 1012.4 |
| 20260905020030 | 84 | 187 | 0.0 | 0.0 | 0.00 | 0.00 | 0.00 | 77 | 1011.9 |
| 20260905014529 | 85 | 187 | 0.0 | 0.0 | 0.00 | 0.00 | 0.00 | 76 | 1011.8 |
| 20260905013029 | 86 | 187 | 0.0 | 1.0 | 0.00 | 0.00 | 0.00 | 73 | 1011.6 |
| 20260905011526 | 87 | 187 | 0.0 | 0.0 | 0.00 | 0.00 | 0.00 | 71 | 1011.5 |
| 20260905010032 | 88 | 187 | 0.0 | 0.0 | 0.00 | 0.00 | 0.00 | 69 | 1011.4 |
| 20260905004525 | 89 | 187 | 0.0 | 0.0 | 0.00 | 0.00 | 0.00 | 67 | 1011.3 |
| 20260905003025 | 90 | 187 | 0.0 | 0.0 | 0.00 | 0.00 | 0.00 | 64 | 1011.3 |
| 20260905001525 | 92 | 187 | 0.0 | 0.0 | 0.00 | 0.00 | 0.00 | 60 | 1011.4 |
| 20260905000024 | 94 | 187 | 0.0 | 0.0 | 0.00 | 0.00 | 0.00 | 57 | 1011.3 |
| 20260904234530 | 96 | 187 | 0.0 | 0.0 | 0.00 | 0.00 | 0.00 | 56 | 1011.2 |
| 20260904233022 | 96 | 170 | 0.0 | 1.0 | 0.00 | 0.00 | 0.00 | 56 | 1011.1 |
| 20260904231522 | 97 | 87 | 0.0 | 4.0 | 0.00 | 0.00 | 0.00 | 54 | 1010.9 |
| 20260904230021 | 98 | 85 | 0.0 | 1.0 | 0.00 | 0.00 | 0.00 | 54 | 1010.9 |
| 20260904224520 | 98 | 245 | 0.0 | 0.0 | 0.00 | 0.00 | 0.00 | 53 | 1010.8 |
| 20260904223020 | 98 | 245 | 0.0 | 1.0 | 0.00 | 0.00 | 0.00 | 52 | 1010.9 |
| 20260904221519 | 97 | 25 | 0.0 | 2.0 | 0.00 | 0.00 | 0.00 | 52 | 1010.9 |
| 20260904220026 | 97 | 271 | 0.0 | 0.0 | 0.00 | 0.00 | 0.00 | 55 | 1010.9 |
| 20260904214517 | 97 | 318 | 0.0 | 4.0 | 0.00 | 0.00 | 0.00 | 57 | 1011.0 |
| 20260904213015 | 98 | 152 | 0.0 | 1.0 | 0.00 | 0.00 | 0.00 | 54 | 1011.2 |
| 20260904211513 | 97 | 23 | 0.0 | 5.0 | 0.00 | 0.00 | 0.00 | 56 | 1011.3 |
| 20260904210015 | 98 | 97 | 0.0 | 4.0 | 0.00 | 0.00 | 0.00 | 56 | 1011.5 |
| 20260904204510 | 98 | 97 | 2.0 | 6.0 | 0.00 | 0.00 | 0.00 | 53 | 1011.8 |
| 20260904203008 | 97 | 98 | 1.0 | 6.0 | 0.00 | 0.00 | 0.00 | 55 | 1011.9 |
| 20260904201507 | 97 | 158 | 1.0 | 5.0 | 0.00 | 0.00 | 0.00 | 54 | 1012.0 |
| 20260904200014 | 96 | 249 | 0.0 | 5.0 | 0.00 | 0.00 | 0.00 | 55 | 1012.3 |
| 20260904194506 | 95 | 66 | 2.0 | 7.0 | 0.00 | 0.00 | 0.00 | 56 | 1012.4 |
| 20260904193002 | 97 | 104 | 3.0 | 7.0 | 0.00 | 0.00 | 0.00 | 53 | 1012.7 |
| 20260904191601 | 97 | 116 | 0.0 | 5.0 | 0.00 | 0.00 | 0.00 | 54 | 1012.9 |
| 20260904190059 | 97 | 86 | 0.0 | 4.0 | 0.00 | 0.00 | 0.00 | 56 | 1013.2 |
| 20260904184607 | 95 | 155 | 0.0 | 6.0 | 0.00 | 0.00 | 0.00 | 60 | 1013.2 |
| 20260904183055 | 94 | 343 | 1.0 | 8.0 | 0.00 | 0.00 | 0.00 | 59 | 1013.4 |
| 20260904181604 | 93 | 354 | 0.0 | 5.0 | 0.00 | 0.00 | 0.00 | 61 | 1013.6 |
| 20260904180110 | 92 | 296 | 1.0 | 6.0 | 0.00 | 0.00 | 0.00 | 59 | 1013.8 |
| 20260904174607 | 93 | 83 | 1.0 | 5.0 | 0.00 | 0.00 | 0.00 | 58 | 1014.1 |
| 20260904173050 | 93 | 268 | 0.0 | 4.0 | 0.00 | 0.00 | 0.00 | 61 | 1014.4 |
| 20260904171549 | 92 | 50 | 1.0 | 6.0 | 0.00 | 0.00 | 0.00 | 60 | 1014.7 |
| 20260904170048 | 91 | 335 | 0.0 | 4.0 | 0.00 | 0.00 | 0.00 | 61 | 1014.8 |
| 20260904164546 | 91 | 289 | 1.0 | 5.0 | 0.00 | 0.00 | 0.00 | 62 | 1014.9 |
| 20260904163051 | 91 | 66 | 0.0 | 6.0 | 0.00 | 0.00 | 0.00 | 64 | 1014.9 |
| 20260904161541 | 90 | 107 | 0.0 | 2.0 | 0.00 | 0.00 | 0.00 | 65 | 1015.0 |
| 20260904160039 | 90 | 73 | 1.0 | 5.0 | 0.00 | 0.00 | 0.00 | 65 | 1015.1 |
| 20260904154539 | 89 | 64 | 1.0 | 5.0 | 0.00 | 0.00 | 0.00 | 67 | 1015.2 |
| 20260904153044 | 89 | 88 | 1.0 | 5.0 | 0.00 | 0.00 | 0.00 | 70 | 1015.3 |
| 20260904151533 | 87 | 43 | 0.0 | 2.0 | 0.00 | 0.00 | 0.00 | 71 | 1015.1 |
| 20260904150032 | 87 | 64 | 0.0 | 4.0 | 0.00 | 0.00 | 0.00 | 72 | 1014.9 |
| 20260904144528 | 86 | 133 | 0.0 | 4.0 | 0.00 | 0.00 | 0.00 | 74 | 1014.8 |
| 20260904143025 | 86 | 13 | 0.0 | 1.0 | 0.00 | 0.00 | 0.00 | 78 | 1014.8 |
| 20260904141519 | 85 | 122 | 0.0 | 0.0 | 0.00 | 0.00 | 0.00 | 78 | 1015.0 |
| 20260904140015 | 83 | 122 | 0.0 | 0.0 | 0.00 | 0.00 | 0.00 | 81 | 1014.9 |
| 20260904134511 | 81 | 95 | 0.0 | 0.0 | 0.00 | 0.00 | 0.00 | 87 | 1014.8 |
| 20260904133007 | 78 | 94 | 0.0 | 1.0 | 0.00 | 0.00 | 0.00 | 91 | 1014.5 |
| 20260904131504 | 77 | 95 | 0.0 | 0.0 | 0.00 | 0.00 | 0.00 | 95 | 1014.3 |
| 20260904130004 | 75 | 94 | 0.0 | 0.0 | 0.00 | 0.00 | 0.00 | 95 | 1014.4 |
| 20260904124503 | 75 | 95 | 0.0 | 0.0 | 0.00 | 0.00 | 0.00 | 95 | 1014.3 |
| 20260904123001 | 75 | 95 | 0.0 | 0.0 | 0.00 | 0.00 | 0.00 | 95 | 1014.2 |
| 20260904121603 | 74 | 95 | 0.0 | 0.0 | 0.00 | 0.00 | 0.00 | 95 | 1014.1 |
| 20260904120104 | 74 | 95 | 0.0 | 0.0 | 0.00 | 0.00 | 0.00 | 94 | 1014.0 |
| 20260904114557 | 74 | 95 | 0.0 | 0.0 | 0.00 | 0.00 | 0.00 | 94 | 1013.8 |
| 20260904113100 | 74 | 95 | 0.0 | 0.0 | 0.00 | 0.00 | 0.00 | 94 | 1013.5 |
| 20260904111555 | 74 | 95 | 0.0 | 0.0 | 0.00 | 0.00 | 0.00 | 94 | 1013.6 |
| 20260904110057 | 74 | 94 | 0.0 | 0.0 | 0.00 | 0.00 | 0.00 | 94 | 1013.6 |
| 20260904104559 | 74 | 95 | 0.0 | 0.0 | 0.00 | 0.00 | 0.00 | 94 | 1013.5 |
| 20260904103053 | 75 | 95 | 0.0 | 0.0 | 0.00 | 0.00 | 0.00 | 94 | 1013.5 |
| 20260904101603 | 75 | 95 | 0.0 | 0.0 | 0.00 | 0.00 | 0.00 | 94 | 1013.5 |
| 20260904100048 | 75 | 95 | 0.0 | 0.0 | 0.00 | 0.00 | 0.00 | 94 | 1013.4 |
| 20260904094546 | 75 | 94 | 0.0 | 0.0 | 0.00 | 0.00 | 0.00 | 93 | 1013.3 |
| 20260904093108 | 75 | 95 | 0.0 | 0.0 | 0.00 | 0.00 | 0.00 | 93 | 1013.3 |
| 20260904091545 | 75 | 94 | 0.0 | 0.0 | 0.00 | 0.00 | 0.00 | 93 | 1013.2 |
| 20260904090045 | 75 | 95 | 0.0 | 0.0 | 0.00 | 0.00 | 0.00 | 93 | 1013.1 |
| 20260904084541 | 75 | 94 | 0.0 | 0.0 | 0.00 | 0.00 | 0.00 | 93 | 1013.1 |
| 20260904083040 | 75 | 95 | 0.0 | 0.0 | 0.00 | 0.00 | 0.00 | 93 | 1013.0 |
| 20260904081541 | 75 | 95 | 0.0 | 0.0 | 0.00 | 0.00 | 0.00 | 93 | 1013.0 |
| 20260904080041 | 76 | 95 | 0.0 | 0.0 | 0.00 | 0.00 | 0.00 | 92 | 1012.8 |
| 20260904074539 | 76 | 95 | 0.0 | 0.0 | 0.00 | 0.00 | 0.00 | 92 | 1012.8 |
| 20260904073039 | 76 | 94 | 0.0 | 0.0 | 0.00 | 0.00 | 0.00 | 92 | 1012.8 |
| 20260904071534 | 76 | 95 | 0.0 | 0.0 | 0.00 | 0.00 | 0.00 | 92 | 1012.8 |
| 20260904070044 | 76 | 94 | 0.0 | 0.0 | 0.00 | 0.00 | 0.00 | 92 | 1012.9 |
| 20260904064537 | 76 | 94 | 0.0 | 0.0 | 0.00 | 0.00 | 0.00 | 92 | 1012.7 |
| 20260904063028 | 77 | 95 | 0.0 | 0.0 | 0.00 | 0.00 | 0.00 | 91 | 1012.7 |
| 20260904061528 | 77 | 95 | 0.0 | 0.0 | 0.00 | 0.00 | 0.00 | 91 | 1012.8 |
| 20260904060025 | 77 | 94 | 0.0 | 0.0 | 0.00 | 0.00 | 0.00 | 91 | 1012.6 |
| 20260904054530 | 77 | 95 | 0.0 | 0.0 | 0.00 | 0.00 | 0.00 | 91 | 1012.4 |
| 20260904053022 | 77 | 95 | 0.0 | 0.0 | 0.00 | 0.00 | 0.00 | 91 | 1012.5 |